User: anonymous   Login
Location: A�t Lahcen
(32.8243°N, 5.4246°W)
Time: 11:47:44
(UTC+00:00)
Language:

OAO 2 Rocket - Orbit

View from above orbital plane
View from above orbital plane
View from above satellite
View from above satellite

Ground track
Ground track

The orbit data is extracted from the following two-line orbital elements,

1  3598U 68110B   21103.13321826  .00000081  00000-0  23406-4 0  9992
2  3598  34.9949  13.1696 0048665  32.5324 327.8353 14.54521222769819
Epoch (UTC): 13 April 2021 03:11:50
Eccentricity: 0.0048665
inclination: 34.9949°
perigee height: 676 km
apogee height: 745 km
right ascension of ascending node: 13.1696°
argument of perigee: 32.5324°
revolutions per day: 14.54521222
mean anomaly at epoch: 327.8353°
orbit number at epoch: 76981

The dashed part of the orbit path shows where the satellite is in the earth's shadow,  

DLR